sat.trackr.live / text

‹ back to catalog

STARLINK-11134 [DTC]

NORAD 59956 · 2024-107M

PAYLOAD ACTIVE UNKNOWN

§ Identity

Operator
Country
US
Launch date
2024-06-05
Launch site
AFETR
Launch vehicle
Mass (kg)
RCS (m²)

Purposes: comms

External: N2YO · Heavens-Above · Gunter

§ Orbital elements

Epoch: 2026-05-24T17:42:17.754336Z

Period
91.74 min
Inclination
53.1593°
Eccentricity
0.0001192
Mean motion
15.69718331 rev/d
Perigee alt
358.9 km
Apogee alt
360.5 km
Semi-major
6,737.8 km
B*
2.0018e-5
RAAN
236.1182°
Arg perigee
91.4516°
Mean anomaly
268.6639°
Rev number
11,402

§ Raw data

STARLINK-11134 [DTC]1 59956U 24107M   26144.73770549  .00001838  00000+0  20018-4 0  99912 59956  53.1593 236.1182 0001192  91.4516 268.6639 15.69718331114026

JSON: /api/v1/satellites/59956 · /tle

For live sub-satellite position, see the globe view (requires WebGL).

§ Visibility from observer

Set your observer location to see the next 7 days of passes ≥ 10°. The values pass through the URL so the page stays shareable.

No JS? Fill the form by hand. The geolocation button needs JavaScript.